Погода в Титоренко

Россия / Саратовская область     51°18′04″N   46°36′25″E
темп.,
°C
ветер,
м/с
пор.,
м/с
влажн.,
%
обл.,
%
осадки,
мм/ч
давл.,
гПа
погр.,
м
29 июня, ср
ср2901:00+13св410690 0.0 1018238
04:00+11св35760 0.0 101879
07:00+13ссв35690 0.0 1019229
10:00+18с46460 0.0 10191648
13:00+21с563916 0.0 10182209
16:00+20ссв7644100 0.0 10181907
19:00+18св675532 0.0 1018899
22:00+13всв487084 0.0 1019177
30 июня, чт
чт3001:00+14юв2361100 0.0 1018120
04:00+14з346399 0.0 1018133
07:00+14зсз46699 0.0 1018317
10:00+19сз44500 0.0 10171431
13:00+21сз45405 0.0 10152113
16:00+23сз463647 0.0 10142544
19:00+21ссз584563 0.0 1013612
22:00+16сз34594 0.0 101351
1 июля, пт
пт101:00+14сз466885 0.0 1013104
04:00+15сз34666 0.0 1012113
07:00+15с356846 0.3 1012256
10:00+16ссв685688 0.3 1013937
13:00+19с693711 0.0 10132395
16:00+20ссз8103469 0.0 10132770
19:00+16с6115410 0.0 10131530
22:00+13ссз610656 0.0 1014978
2 июля, сб
сб201:00+11ссз5983100 0.0 1014396
04:00+12ссз61083100 0.1 1013657
07:00+12ссз712786 0.0 1013642
10:00+18с9125827 0.0 10131362
13:00+21с8114899 0.6 10132213
16:00+20с61152100 0.6 10131615
19:00+19ссз51151100 0.0 1013571
22:00+15ссз410620 0.0 1014161
3 июля, вс
вс301:00+13ссз47724 0.0 1014105
04:00+14ссз387587 0.0 1013175
07:00+15ссз48720 0.0 1014257
10:00+21с56495 0.0 10151026
13:00+24ссв673965 0.0 10152479
16:00+24с4541100 0.0 10152010
19:00+21св355688 0.0 1016154
22:00+18ссв22635 0.0 101812